Weather History for Hobart, OK

Change the Weather History Date:

Wednesday, October 16, 2013

  Actual Average Record
Temperature  
Mean Temperature 48 °F -  
Max Temperature 52 °F 72 °F 89 °F (2011)
Min Temperature 42 °F 48 °F 30 °F (2001)
Degree Days  
Heating Degree Days 18    
Moisture  
Dew Point 39 °F    
Average Humidity 72    
Maximum Humidity 89    
Minimum Humidity 57    
Precipitation  
Precipitation 0.02 in - - ()
Sea Level Pressure  
Sea Level Pressure 30.15 in    
Wind  
Wind Speed 10 mph (NNE)    
Max Wind Speed 15 mph    
Max Gust Speed -    
Visibility 10 miles    
Events Rain    
Averages and records for this station are not official NWS values.
T = Trace of Precipitation, MM = Missing Value Source: NWS Daily Summary

Daily Weather History Graph

Daily Weather History Graph

Search for Another Location

Airport:

Trip Planner

Search our weather history database for the weather conditions in past years. The results will help you decide how hot, cold, wet, or windy it might be!

Date:

Astronomy

Oct. 16, 2013 Rise Set
Actual Time 7:43 AM CDT 6:59 PM CDT
Civil Twilight 7:17 AM CDT 7:25 PM CDT
Nautical Twilight 6:48 AM CDT 7:54 PM CDT
Astronomical Twilight 6:18 AM CDT 8:23 PM CDT
Moon 5:36 PM CDT (10/16) 5:17 AM CDT (10/16)
Length of Visible Light 12h 07m
Length of Day
11h 16m
Waxing Gibbous, 94% of the Moon is Illuminated
Oct 16
Waxing Gibbous
Oct 18
Full
Oct 26
Last Quarter
Nov 3
New
Nov 9
First Quarter

Hourly Weather History & Observations

Time (CDT) Temp. Windchill Dew Point Humidity Pressure Visibility Wind Dir Wind Speed Gust Speed Precip Events Conditions
12:53 AM 52.0 °F - 41.0 °F 66% 30.14 in 10.0 mi NNE 11.5 mph - N/A   Clear
1:53 AM 50.0 °F - 39.9 °F 68% 30.14 in 10.0 mi NE 15.0 mph - N/A   Clear
2:53 AM 48.9 °F - 39.9 °F 71% 30.14 in 10.0 mi NE 13.8 mph - N/A   Clear
3:53 AM 46.9 °F - 39.9 °F 77% 30.15 in 10.0 mi North 10.4 mph - N/A   Clear
4:53 AM 46.9 °F - 39.9 °F 77% 30.17 in 10.0 mi North 9.2 mph - N/A   Scattered Clouds
5:53 AM 46.9 °F - 39.0 °F 74% 30.17 in 10.0 mi NNE 10.4 mph - N/A   Overcast
6:53 AM 46.9 °F - 37.9 °F 71% 30.19 in 10.0 mi North 13.8 mph - N/A   Overcast
7:53 AM 46.9 °F - 37.9 °F 71% 30.19 in 10.0 mi NNE 10.4 mph - N/A   Overcast
8:53 AM 46.0 °F 39.6 °F 39.0 °F 76% 30.18 in 10.0 mi NE 15.0 mph - N/A   Overcast
9:53 AM 48.0 °F - 37.9 °F 68% 30.22 in 10.0 mi North 8.1 mph - N/A   Overcast
10:53 AM 48.9 °F - 37.9 °F 66% 30.20 in 10.0 mi NE 6.9 mph - N/A   Overcast
11:53 AM 52.0 °F - 37.9 °F 59% 30.19 in 10.0 mi NNE 8.1 mph - N/A   Overcast
12:53 PM 50.0 °F - 37.0 °F 61% 30.18 in 10.0 mi North 10.4 mph - N/A   Overcast
1:53 PM 52.0 °F - 37.0 °F 57% 30.17 in 10.0 mi North 11.5 mph - 0.00 in   Overcast
2:53 PM 52.0 °F - 37.9 °F 59% 30.14 in 10.0 mi North 11.5 mph - 0.00 in Rain Light Rain
3:53 PM 48.9 °F - 39.9 °F 71% 30.13 in 9.0 mi North 12.7 mph - 0.02 in Rain Light Rain
4:53 PM 50.0 °F - 39.9 °F 68% 30.12 in 10.0 mi North 9.2 mph - 0.00 in   Overcast
5:53 PM 50.0 °F - 39.0 °F 66% 30.11 in 10.0 mi North 8.1 mph - N/A   Overcast
6:53 PM 48.9 °F - 39.9 °F 71% 30.11 in 10.0 mi NE 4.6 mph - N/A   Mostly Cloudy
7:53 PM 46.0 °F 44.8 °F 41.0 °F 83% 30.13 in 10.0 mi NE 3.5 mph - N/A   Clear
8:53 PM 44.1 °F - 41.0 °F 89% 30.14 in 10.0 mi Calm Calm - N/A   Clear
9:53 PM 44.1 °F 41.5 °F 39.9 °F 85% 30.14 in 10.0 mi SSE 4.6 mph - N/A   Clear
10:53 PM 43.0 °F 38.8 °F 39.0 °F 86% 30.13 in 10.0 mi South 6.9 mph - N/A   Clear
11:53 PM 42.1 °F 37.1 °F 39.0 °F 89% 30.11 in 10.0 mi South 8.1 mph - N/A   Clear